Home > Weather > Steinbach > Past weeks

Flag for Canada Weather for the Past 2 Weeks in Steinbach, Manitoba, Canada

Now
5 °F

Frigid.


Feels Like: -4 °F
Forecast: -16 / -7 °F
Wind: 5 mph from Northwest

Location: Winnipeg The Forks Man

Current Time: Feb 11, 2016 at 9:44:22 PM

Latest Report: Feb 11, 2016 at 8:00 PM


Visibility: N/A

Pressure: 30.36 "Hg

Humidity: 69%

Dew point: -3 °F

Location of SteinbachLocation

Historic Weather in Steinbach — Graph

°F

Steinbach Temperature Yesterday

Maximum temperature yesterday: 6 °F (at 3:00 PM)
Minimum temperature yesterday: -5 °F (at 4:00 AM)
Average temperature yesterday: 0 °F

High & Low Weather Summary for the Past Weeks

 TemperatureHumidityPressure
High38 °F (Jan 29, 9:00 PM)99% (Feb 7, 7:00 AM)30.43 "Hg (Feb 7, 7:00 AM)
Low-5 °F (Feb 10, 4:00 AM)54% (Feb 10, 3:00 PM)29.19 "Hg (Jan 30, 1:00 AM)
Average16 °F77%29.98 "Hg
* Reported Jan 27 8:00 PM — Feb 11 8:00 PM, Steinbach, Weather by CustomWeather, © 2016

Note: Actual official high and low records may vary slightly from our data, if they occured in-between our weather recording intervals... More about our weather records

Advertising

Steinbach Weather History for the Previous 24 Hours

 ConditionsComfort  
Time TempWeatherWind HumidityBarometerVisibility
8:00 PM
Thu, Feb 11
5 °FFrigid.5 mph69%30.36 "HgN/A
7:00 PM8 °FFrigid.3 mph72%30.34 "HgN/A
6:00 PM7 °FFrigid.5 mph72%30.32 "HgN/A
5:00 PM9 °FFrigid.5 mph73%30.32 "HgN/A
3:00 PM10 °FCold.3 mph68%30.29 "HgN/A
2:00 PM10 °FFrigid.3 mph68%30.29 "HgN/A
1:00 PM9 °FFrigid.3 mph67%30.30 "HgN/A
12:00 PM7 °FFrigid.3 mph72%30.31 "HgN/A
11:00 AM6 °FFrigid.2 mph74%30.31 "HgN/A
10:00 AM5 °FFrigid.3 mph75%30.31 "HgN/A
9:00 AM3 °FFrigid.3 mph76%30.32 "HgN/A
8:00 AM2 °FFrigid.2 mph79%30.32 "HgN/A
7:00 AM1 °FFrigid.3 mph79%30.32 "HgN/A
6:00 AM1 °FFrigid.3 mph78%30.32 "HgN/A
5:00 AM1 °FFrigid.5 mph78%30.34 "HgN/A
4:00 AM2 °FFrigid.2 mph78%30.34 "HgN/A
3:00 AM1 °FFrigid.2 mph79%30.34 "HgN/A
2:00 AM0 °FFrigid.1 mph77%30.34 "HgN/A
1:00 AM2 °FFrigid.3 mph71%30.36 "HgN/A
12:00 AM2 °FFrigid.3 mph68%30.37 "HgN/A
11:00 PM
Wed, Feb 10
3 °FFrigid.2 mph63%30.37 "HgN/A
10:00 PM2 °FFrigid.1 mph80%30.37 "HgN/A
9:00 PM0 °FFrigid.1 mph75%30.38 "HgN/A
Weather by CustomWeather, © 2016

See weather overviewHow to use our weather pages